Theta_e
310 310 310 310 311 311 311 312 314 315 314 314 315 316 317 318 318 318 316 319 320 318 318 318 321 322 323 323 322 321 324 325 323 327 336 336 338 338 336 335 336 335 342 344 344
310 310 310 310 311 311 311 313 315 315 314 314 315 316 318 318 320 321 319 319 318 319 320 321 321 322 323 323 322 322 325 324 322 327 338 336 339 337 337 338 339 340 341 344 344
309 309 309 311 311 311 312 314 315 315 314 314 315 317 318 318 319 319 319 319 319 319 319 320 321 322 323 321 321 320 325 321 321 324 336 333 338 336 337 338 337 338 344 343 343
309 309 310 311 311 311 313 315 315 315 315 315 316 317 318 318 319 319 319 319 319 320 320 321 321 321 322 322 318 322 319 320 323 324 331 333 333 337 336 337 340 341 343 343 344
309 310 311 311 311 311 314 315 315 315 315 315 316 317 317 319 320 318 319 320 320 320 321 321 321 320 322 319 318 320 319 319 320 325 327 330 334 335 334 337 340 341 342 343 343
310 310 311 311 311 312 314 315 315 316 316 316 316 317 317 320 321 320 320 321 321 321 321 321 322 321 320 320 322 318 319 320 322 327 330 334 333 334 334 338 343 344 344 343 340
310 311 311 311 311 312 314 315 315 316 316 316 316 317 319 321 321 320 321 322 322 322 322 322 322 322 320 322 318 318 322 322 321 325 331 332 333 332 334 338 342 343 342 341 340
311 311 312 312 312 312 314 315 315 316 317 317 316 319 322 321 321 321 322 322 322 323 323 322 322 321 320 320 320 322 322 324 320 321 326 329 331 330 335 338 340 340 341 340 336
311 312 312 312 312 313 314 315 315 316 316 317 317 319 322 321 321 322 321 322 322 322 323 323 323 322 321 324 324 323 325 323 321 319 324 324 325 329 334 338 339 340 342 341 338
311 311 311 312 312 313 314 315 315 316 316 316 318 320 322 322 322 322 322 322 323 324 323 323 322 324 322 325 326 325 324 323 323 320 319 324 324 330 333 338 339 340 341 340 336
310 311 311 311 312 314 320 318 322 318 321 319 321 322 322 322 322 322 322 323 324 324 325 321 325 325 323 323 323 323 323 324 323 320 321 323 324 329 332 337 337 338 339 336 331
310 311 311 312 317 323 323 323 322 322 323 322 322 322 322 322 322 323 323 324 324 324 321 324 325 321 320 321 323 323 324 323 322 320 322 320 324 330 331 333 334 336 337 334 332
310 310 312 316 322 323 323 323 322 323 322 322 322 322 322 322 322 323 323 324 322 323 323 325 322 319 322 323 325 323 323 323 323 321 318 319 321 327 329 329 330 332 336 334 333
310 311 314 321 324 323 323 322 322 322 321 319 322 322 322 322 322 323 324 324 323 323 323 324 322 322 323 324 322 324 321 321 321 321 323 317 322 323 324 330 330 331 331 331 330
315 312 316 323 324 323 323 322 322 323 323 325 323 322 322 322 322 323 324 325 325 324 324 325 323 323 324 322 321 324 319 319 319 320 320 321 321 320 324 326 329 330 331 330 330
316 312 317 323 324 323 323 323 322 319 321 324 321 320 321 322 323 323 324 325 324 325 324 324 321 322 323 320 318 317 319 317 318 319 322 320 322 323 326 327 327 328 329 329 329
316 315 316 322 323 324 324 323 322 319 319 324 322 321 321 323 324 323 325 327 327 328 328 324 324 323 322 325 321 323 323 323 321 321 321 319 324 326 324 323 327 328 328 327 321
317 316 315 319 323 322 322 324 321 317 324 326 324 320 323 322 323 324 326 328 324 325 326 328 327 325 322 324 324 319 321 322 321 321 321 320 325 325 322 319 319 321 324 318 316
317 316 319 315 322 322 321 323 321 320 325 326 326 323 323 322 323 326 326 327 325 324 329 327 327 323 320 319 320 321 322 318 323 320 322 322 322 323 322 320 319 319 318 316 314
317 321 323 319 318 322 323 319 322 321 325 326 328 327 327 327 324 326 327 326 324 323 322 325 329 323 324 319 317 319 318 323 323 324 322 322 321 322 324 323 320 319 317 314 313
317 324 324 316 323 322 325 322 322 322 323 326 328 328 327 327 326 328 328 325 324 323 323 324 328 325 324 323 324 320 321 319 321 322 323 323 322 320 322 322 322 319 315 314 313
315 321 321 321 325 319 325 322 322 324 324 325 326 327 327 325 328 328 327 326 322 323 326 323 326 326 324 321 319 321 320 321 323 324 321 321 323 318 319 317 317 317 314 313 313
312 314 322 325 327 325 322 323 323 324 324 325 327 326 324 326 330 327 325 322 323 324 326 324 325 327 320 321 321 322 319 318 319 319 325 326 325 318 316 316 315 315 315 314 313
315 319 321 322 319 324 324 324 326 322 323 323 325 324 325 325 325 327 325 322 320 323 319 322 324 324 322 320 321 323 322 321 322 326 322 322 322 321 320 318 316 316 315 314 314
316 319 318 323 320 318 319 322 322 323 321 321 325 325 326 326 325 326 325 322 320 319 318 323 327 323 322 320 320 322 322 322 323 323 324 322 322 322 321 319 317 316 315 315 315
317 318 317 316 316 318 317 321 321 321 321 323 324 323 323 328 328 327 326 325 325 320 321 319 327 322 325 322 322 324 323 323 323 322 321 321 321 318 316 315 316 316 315 315 315
315 317 317 312 317 318 320 320 321 320 321 321 321 323 324 324 322 323 323 324 325 326 323 324 326 326 325 321 323 324 322 322 322 320 320 322 320 317 318 317 317 317 317 315 314
Wind_Speed
2 2 2 3 4 4 4 4 5 4 4 5 5 5 5 5 6 1 2 6 1 0 2 4 2 2 2 3 3 2 1 3 4 6 7 11 6 3 5 10 4 6 6 8 16
2 2 3 4 4 4 5 5 4 3 4 6 7 8 8 10 7 6 5 5 3 5 6 5 4 3 1 2 1 0 1 4 4 8 10 18 11 12 6 7 4 8 12 16 17
2 2 3 5 4 4 5 5 3 3 5 7 8 9 11 7 9 6 6 6 6 5 7 9 6 5 3 1 1 2 2 1 4 8 20 16 16 9 15 9 15 21 19 20 20
3 4 5 4 4 4 5 4 2 3 5 7 8 9 11 4 4 4 6 5 4 6 9 8 8 4 2 2 1 3 1 1 6 8 16 17 15 11 11 8 11 16 20 22 18
3 5 5 4 4 4 4 3 1 3 5 6 8 10 11 6 7 7 6 4 5 7 8 6 9 3 3 2 5 1 3 4 7 10 11 13 8 7 6 7 16 21 22 20 15
4 5 4 4 4 4 4 3 1 2 5 6 7 10 7 6 7 6 5 6 6 6 7 7 6 5 4 2 2 4 7 8 6 9 5 10 6 3 4 8 17 19 18 15 14
3 4 4 4 4 4 4 3 2 2 4 6 7 10 4 3 6 5 7 8 7 8 6 5 5 5 2 2 4 5 5 8 8 4 4 7 3 2 4 10 15 15 14 16 14
2 3 3 3 3 3 3 3 2 2 3 5 7 8 2 4 4 6 5 6 5 7 6 3 4 5 3 3 4 3 4 6 4 1 5 5 15 2 7 12 13 13 12 13 16
2 2 2 2 2 3 3 3 3 2 3 4 5 7 3 4 5 3 3 5 3 5 5 4 3 4 2 3 3 5 3 4 3 3 4 5 9 8 12 14 14 13 13 12 15
2 2 2 2 2 2 2 3 2 2 2 2 3 2 4 7 4 3 1 2 1 2 2 3 5 3 3 1 4 3 4 4 5 3 5 11 17 10 15 16 17 15 13 13 14
1 2 2 2 3 4 1 3 1 1 1 1 3 4 3 9 1 2 0 1 1 6 3 5 4 5 4 5 7 7 4 1 2 3 3 4 9 11 17 17 16 14 14 13 15
1 2 3 4 8 10 9 6 5 1 2 3 6 8 7 5 2 5 4 2 4 4 1 3 6 3 6 6 6 3 2 3 2 3 4 4 5 5 14 14 14 15 15 17 16
2 2 5 8 7 8 11 9 7 5 0 2 4 5 1 0 1 3 3 4 6 5 3 4 5 4 1 3 3 2 1 1 4 5 1 4 2 3 7 10 12 14 18 17 19
3 2 7 6 6 7 9 7 7 6 3 2 3 2 4 2 2 1 3 2 3 6 5 6 2 1 2 3 1 1 1 4 5 4 7 4 3 2 2 12 15 18 21 21 19
6 2 7 6 6 9 6 5 5 3 2 1 2 1 6 4 3 2 3 1 3 4 3 2 6 2 1 2 1 2 3 2 2 2 3 3 4 3 1 8 14 18 21 21 21
8 3 8 7 6 6 3 4 3 1 1 1 2 3 5 2 2 3 3 7 4 4 7 2 0 0 1 2 3 2 2 3 2 1 2 3 3 2 2 4 7 16 20 21 18
11 2 10 5 3 2 1 3 1 1 2 2 1 3 4 3 2 2 2 3 1 3 1 1 1 2 1 3 3 4 4 3 1 0 2 2 3 3 4 6 7 15 18 15 10
11 2 9 8 4 1 2 3 1 1 3 3 3 2 6 5 2 2 3 3 2 2 2 3 3 1 3 2 2 4 2 2 4 3 6 1 2 1 2 1 3 8 10 7 5
10 3 4 11 8 2 1 1 3 4 2 5 1 2 2 3 3 3 1 4 2 3 4 4 3 1 5 2 3 2 1 2 3 1 3 1 2 6 5 4 3 6 7 5 4
10 3 2 8 12 5 3 3 2 4 4 1 1 1 3 2 5 5 6 1 3 0 1 4 2 1 2 3 10 1 6 1 1 3 4 2 3 3 7 9 5 7 7 5 6
7 3 2 11 9 3 2 3 3 5 4 2 1 2 2 3 3 3 5 1 0 3 3 3 0 1 2 2 1 2 2 4 1 2 3 5 3 2 4 6 9 10 8 5 5
2 2 1 12 3 1 3 3 2 4 3 5 2 1 2 2 3 2 4 1 3 2 3 2 2 2 2 1 4 2 1 1 2 2 1 2 7 2 3 4 3 9 6 3 5
6 1 1 11 3 2 1 2 3 3 3 1 3 1 1 3 3 2 3 2 2 3 4 6 2 1 2 2 2 1 2 4 4 0 6 5 6 2 2 4 5 4 3 5 7
3 0 2 4 4 4 3 1 2 3 2 2 1 2 3 2 5 4 3 2 2 4 7 4 3 3 2 2 1 4 3 3 3 3 8 11 17 13 7 9 7 5 5 5 8
2 1 1 2 3 3 1 2 1 3 1 2 2 2 4 3 3 3 3 3 3 6 3 2 3 3 3 4 4 7 9 7 8 9 6 13 13 17 12 8 8 6 6 9 11
1 2 2 2 1 2 0 2 3 1 2 2 3 4 2 4 6 8 6 4 3 3 3 1 2 2 3 1 3 7 11 10 10 6 10 12 14 4 2 4 6 7 9 11 12
3 3 2 1 1 2 2 3 3 1 2 2 3 1 3 5 6 3 7 6 7 7 5 4 5 3 3 2 6 7 6 4 3 4 4 5 4 3 5 8 8 9 10 13 11
Wind_Direction
226 226 206 189 179 171 160 150 123 91 50 23 14 17 14 359 342 10 117 148 18 253 148 168 158 322 65 59 39 90 85 92 143 172 131 159 139 162 144 142 149 183 160 171 180
234 218 190 175 172 169 161 144 118 75 32 14 8 6 359 354 78 98 133 145 134 112 102 96 152 194 105 73 45 11 201 170 158 158 157 164 158 141 163 159 125 140 162 177 183
228 208 181 174 172 171 162 144 119 53 22 11 7 2 356 22 92 72 123 133 119 77 50 52 60 138 87 46 65 140 249 120 158 176 154 159 153 161 155 173 166 170 168 180 179
205 190 175 175 173 174 164 151 111 33 15 10 7 1 6 66 92 77 118 101 66 51 44 50 50 103 111 56 73 221 278 19 133 157 153 161 147 149 188 156 170 169 173 178 180
185 170 168 176 178 181 171 167 109 15 8 8 5 1 20 75 79 94 83 61 39 37 34 42 36 84 66 105 136 21 83 81 113 130 121 141 139 152 186 173 171 173 177 181 180
158 159 170 178 183 186 185 193 262 356 0 2 2 357 25 84 67 58 45 27 33 54 46 42 35 48 86 72 63 45 107 116 77 103 102 144 129 147 209 176 165 168 173 179 190
150 163 168 171 187 195 199 219 272 334 348 350 354 1 58 79 37 52 41 35 61 53 50 37 37 27 16 84 58 105 103 102 45 58 84 140 149 193 171 170 165 174 176 185 196
148 160 162 171 191 196 203 232 267 310 331 336 346 356 25 43 59 75 57 52 74 40 44 38 24 66 63 91 40 73 96 162 20 84 147 214 224 188 174 177 171 174 173 177 178
139 154 165 173 179 189 207 229 246 277 308 325 340 355 42 65 63 40 60 37 72 26 19 23 60 64 59 113 117 39 93 117 106 56 173 217 243 200 183 184 174 173 173 175 171
156 167 170 157 156 180 221 215 224 258 292 325 316 357 61 6 2 7 54 359 349 8 95 59 59 78 67 190 91 75 114 88 134 67 202 216 247 186 188 187 181 176 174 180 177
187 174 150 141 98 66 25 146 145 104 275 177 294 294 329 350 10 59 165 332 55 69 61 23 95 80 66 87 112 120 111 101 182 176 276 234 271 216 188 190 187 184 184 182 189
97 148 143 111 93 79 94 92 80 73 329 233 258 281 308 332 23 67 76 79 53 92 112 96 96 91 102 86 100 105 98 36 279 353 319 351 17 150 193 201 202 194 193 200 206
53 145 134 111 96 100 73 64 54 33 23 283 241 267 294 67 26 41 45 92 76 93 83 112 115 146 91 73 59 50 39 296 303 345 68 321 151 175 197 206 205 208 210 216 219
15 149 134 116 94 102 60 55 32 14 60 289 223 228 198 185 5 73 80 90 73 106 91 84 136 176 58 76 347 289 258 283 287 294 315 349 300 194 214 219 222 217 217 224 227
13 162 138 106 103 75 47 38 8 344 131 106 185 211 179 167 140 76 84 73 121 117 214 106 170 162 58 26 254 11 6 6 358 154 212 30 274 103 225 227 225 219 219 225 231
17 179 159 111 94 65 54 356 336 30 143 66 158 151 142 105 116 114 100 84 96 75 50 78 280 9 90 106 52 334 249 66 88 161 192 20 315 138 275 291 226 214 219 222 233
14 138 175 142 107 96 282 322 50 166 330 76 143 164 160 144 110 47 62 51 121 138 82 44 8 330 191 228 164 14 352 328 222 348 340 18 256 340 296 254 235 209 211 219 223
8 29 190 194 171 68 44 64 170 280 274 337 15 106 183 148 77 84 112 139 78 95 127 197 212 343 6 14 348 48 355 312 311 310 319 215 233 56 222 312 256 239 212 183 189
360 359 182 202 190 172 78 77 229 210 311 328 309 141 142 138 122 126 139 169 162 190 186 174 234 14 41 60 328 130 260 65 114 118 263 296 235 248 210 202 172 148 154 156 195
353 129 165 189 177 175 92 227 245 229 316 316 259 215 161 138 162 190 180 144 147 360 281 166 217 71 97 125 54 282 129 228 105 288 295 240 271 287 218 223 193 182 179 184 211
346 157 84 160 156 146 178 227 269 281 241 246 276 138 115 133 134 153 163 108 351 80 92 126 119 125 239 23 294 154 190 66 64 304 283 301 304 184 262 283 248 211 192 204 223
340 113 69 172 101 60 161 195 295 290 277 260 221 167 143 135 110 129 152 52 347 146 88 44 109 253 352 347 289 342 19 178 223 203 188 303 285 166 279 302 233 186 197 231 254
338 220 82 185 167 188 219 245 258 319 304 287 215 132 87 116 112 122 115 19 59 93 150 176 52 309 186 169 135 171 121 106 95 82 214 265 268 160 234 225 201 204 247 268 283
332 312 74 147 116 145 153 112 307 306 240 311 151 104 113 91 35 139 128 32 77 102 122 114 129 197 249 295 284 258 199 206 233 241 284 254 289 289 278 238 219 238 267 293 295
359 96 105 107 64 105 131 142 163 337 357 5 152 234 157 130 121 151 149 142 78 138 77 102 189 206 261 245 234 266 268 251 236 256 251 292 285 290 306 245 233 255 269 293 296
146 163 112 100 64 156 5 174 166 277 264 21 57 356 193 159 187 192 162 197 183 143 109 58 155 188 265 320 241 275 279 261 253 257 256 277 282 311 274 211 232 261 276 287 293
156 140 124 26 98 173 162 167 181 228 204 246 330 264 231 257 257 272 169 158 164 161 149 153 151 174 277 329 310 270 236 213 240 215 247 271 324 236 226 235 252 273 282 278 285